QTR992 KORD-CYWG

Flight info

Callsign QTR992
Flight time N/A
Altitude 40000
Route PMPKN DCT NEATO DCT DLLAN DCT RONIC DCT BAE J89 DLH DCT BIPKU NORAK6
Aircraft A343/H-SDE2E3FGHIJ4J5M1RWXY/LB1D1

Departure

Time 2026-05-07 15:20
Airport Chicago O'Hare International Airport (KORD)

Arrival

Time N/A
Airport Winnipeg / James Armstrong Richardson International Airport (CYWG)
Time Latitude Longitude Altitude Speed Heading
2026-05-07 14:42 41.97352 -87.88717 664 ft 0 kts 357°
2026-05-07 15:11 41.97349 -87.88717 664 ft 2 kts 358°
2026-05-07 15:11 41.97332 -87.88716 663 ft 2 kts
2026-05-07 15:11 41.97316 -87.88716 663 ft 2 kts 358°
2026-05-07 15:12 41.97299 -87.88716 663 ft 2 kts
2026-05-07 15:12 41.97283 -87.88716 663 ft 2 kts
2026-05-07 15:12 41.97270 -87.88726 661 ft 1 kts 88°
2026-05-07 15:12 41.97269 -87.88730 661 ft 0 kts 92°
2026-05-07 15:15 41.97269 -87.88729 661 ft 0 kts 92°
2026-05-07 15:16 41.97269 -87.88721 661 ft 1 kts 92°
2026-05-07 15:16 41.97262 -87.88681 661 ft 3 kts 126°
2026-05-07 15:16 41.97236 -87.88663 661 ft 6 kts 158°
2026-05-07 15:16 41.97203 -87.88639 661 ft 4 kts 124°
2026-05-07 15:17 41.97198 -87.88601 661 ft 5 kts 96°
2026-05-07 15:17 41.97193 -87.88499 663 ft 12 kts 104°
2026-05-07 15:17 41.97143 -87.88449 664 ft 8 kts 167°
2026-05-07 15:17 41.97064 -87.88443 663 ft 13 kts 179°
2026-05-07 15:18 41.97138 -87.88031 665 ft 0 kts 179°
2026-05-07 15:18 41.97120 -87.88031 666 ft 5 kts 181°
2026-05-07 15:18 41.97085 -87.88032 667 ft 5 kts 181°
2026-05-07 15:18 41.97010 -87.88033 669 ft 15 kts 180°
2026-05-07 15:19 41.96916 -87.88071 670 ft 14 kts 220°
2026-05-07 15:19 41.96861 -87.88134 668 ft 22 kts 221°
2026-05-07 15:19 41.96438 -87.88632 673 ft 99 kts 221°
2026-05-07 15:19 41.95798 -87.89385 676 ft 144 kts 222°
2026-05-07 15:20 41.94982 -87.90314 1105 ft 155 kts 218°
2026-05-07 15:20 41.94473 -87.90961 1645 ft 150 kts 232°
2026-05-07 15:20 41.94196 -87.92245 2439 ft 150 kts 281°
2026-05-07 15:20 41.94772 -87.93520 2869 ft 180 kts 323°
2026-05-07 15:21 41.96096 -87.93894 3327 ft 219 kts
2026-05-07 15:21 41.97495 -87.92840 3931 ft 251 kts 43°
2026-05-07 15:21 41.98862 -87.91299 4690 ft 260 kts 21°
2026-05-07 15:21 42.00606 -87.90794 5690 ft 257 kts 356°
2026-05-07 15:22 42.02383 -87.90960 6737 ft 256 kts 346°
2026-05-07 15:22 42.04154 -87.91351 7767 ft 258 kts 344°
2026-05-07 15:22 42.05934 -87.91759 8827 ft 260 kts 345°
2026-05-07 15:22 42.07738 -87.92088 9887 ft 263 kts 347°
2026-05-07 15:23 42.09588 -87.92329 10616 ft 275 kts 348°
2026-05-07 15:23 42.11572 -87.92515 11022 ft 296 kts 350°
2026-05-07 15:23 42.13657 -87.92648 11568 ft 310 kts 351°
2026-05-07 15:23 42.15847 -87.92744 12299 ft 317 kts 352°
2026-05-07 15:24 42.18067 -87.92825 13150 ft 321 kts 352°
2026-05-07 15:24 42.20322 -87.92907 13983 ft 324 kts 352°
2026-05-07 15:24 42.22597 -87.92999 14671 ft 330 kts 351°
2026-05-07 15:24 42.24919 -87.93104 15327 ft 337 kts 351°
2026-05-07 15:25 42.27257 -87.93215 15987 ft 343 kts 351°
2026-05-07 15:25 42.29669 -87.93333 16671 ft 349 kts 351°
2026-05-07 15:25 42.32119 -87.93463 17355 ft 354 kts 351°
2026-05-07 15:25 42.34597 -87.93693 18032 ft 358 kts 349°
2026-05-07 15:26 42.37103 -87.94003 18673 ft 363 kts 348°
2026-05-07 15:26 42.39629 -87.94342 19337 ft 366 kts 348°
2026-05-07 15:26 42.42154 -87.94680 19950 ft 371 kts 348°
2026-05-07 15:26 42.44742 -87.95015 20576 ft 374 kts 348°
2026-05-07 15:27 42.47363 -87.95343 21207 ft 378 kts 348°
2026-05-07 15:27 42.49961 -87.95668 21805 ft 382 kts 347°
2026-05-07 15:27 42.52654 -87.96002 22405 ft 385 kts 347°
2026-05-07 15:27 42.55316 -87.96330 22989 ft 389 kts 347°
2026-05-07 15:28 42.58036 -87.96665 23567 ft 393 kts 347°
2026-05-07 15:28 42.60746 -87.96998 24040 ft 396 kts 348°
2026-05-07 15:28 42.63509 -87.97334 24478 ft 401 kts 348°
2026-05-07 15:28 42.66312 -87.97592 24939 ft 405 kts 349°
2026-05-07 15:29 42.69142 -87.97827 25381 ft 405 kts 347°
2026-05-07 15:29 42.71910 -87.98455 25849 ft 400 kts 338°
2026-05-07 15:29 42.74504 -87.99642 26286 ft 394 kts 329°
2026-05-07 15:29 42.76972 -88.01261 26726 ft 393 kts 325°
2026-05-07 15:30 42.79390 -88.03030 27162 ft 394 kts 323°
2026-05-07 15:30 42.81780 -88.04880 27606 ft 396 kts 322°
2026-05-07 15:30 42.84175 -88.06778 28050 ft 398 kts 322°
2026-05-07 15:30 42.86575 -88.08692 28464 ft 400 kts 322°
2026-05-07 15:31 42.88960 -88.10585 28893 ft 402 kts 322°
2026-05-07 15:31 42.91397 -88.12508 29318 ft 404 kts 322°
2026-05-07 15:31 42.93841 -88.14429 29690 ft 407 kts 322°
2026-05-07 15:31 42.96311 -88.16367 30062 ft 409 kts 322°
2026-05-07 15:32 42.98760 -88.18286 30356 ft 412 kts 322°
2026-05-07 15:32 43.01266 -88.20251 30657 ft 415 kts 323°
2026-05-07 15:32 43.03785 -88.22229 30818 ft 421 kts 323°
2026-05-07 15:32 43.06342 -88.24237 31096 ft 423 kts 323°
2026-05-07 15:33 43.08876 -88.26226 31412 ft 425 kts 323°
2026-05-07 15:33 43.11420 -88.28307 31682 ft 424 kts 320°
2026-05-07 15:33 43.13860 -88.30589 31963 ft 425 kts 319°
2026-05-07 15:33 43.16292 -88.32927 32238 ft 427 kts 318°
2026-05-07 15:34 43.18681 -88.35259 32597 ft 426 kts 318°
2026-05-07 15:34 43.21092 -88.37632 32993 ft 425 kts 318°
2026-05-07 15:34 43.23505 -88.40015 33351 ft 426 kts 319°
2026-05-07 15:34 43.25924 -88.42409 33646 ft 427 kts 319°
2026-05-07 15:35 43.28307 -88.44765 34011 ft 427 kts 319°
2026-05-07 15:35 43.30724 -88.47154 34303 ft 426 kts 319°
2026-05-07 15:35 43.33136 -88.49539 34594 ft 425 kts 319°
2026-05-07 15:35 43.35517 -88.51896 34843 ft 426 kts 319°
2026-05-07 15:36 43.37932 -88.54288 35076 ft 427 kts 319°
2026-05-07 15:36 43.40350 -88.56686 35318 ft 427 kts 319°
2026-05-07 15:36 43.42736 -88.59054 35584 ft 428 kts 319°
2026-05-07 15:36 43.45163 -88.61466 35725 ft 431 kts 319°
2026-05-07 15:37 43.47594 -88.63884 35947 ft 432 kts 319°
2026-05-07 15:37 43.50037 -88.66314 36200 ft 432 kts 319°
2026-05-07 15:37 43.52480 -88.68746 36437 ft 432 kts 319°
2026-05-07 15:37 43.54920 -88.71178 36658 ft 432 kts 319°
2026-05-07 15:38 43.57328 -88.73581 36889 ft 433 kts 319°
2026-05-07 15:38 43.59775 -88.76026 37109 ft 433 kts 319°
2026-05-07 15:38 43.62235 -88.78487 37331 ft 434 kts 319°
2026-05-07 15:38 43.64660 -88.80915 37551 ft 435 kts 319°
2026-05-07 15:39 43.67118 -88.83380 37755 ft 435 kts 319°
2026-05-07 15:39 43.69574 -88.85845 37977 ft 435 kts 320°
2026-05-07 15:39 43.71991 -88.88272 38248 ft 434 kts 320°
2026-05-07 15:39 43.74439 -88.90734 38505 ft 434 kts 320°
2026-05-07 15:40 43.76880 -88.93190 38688 ft 434 kts 320°
2026-05-07 15:40 43.79330 -88.95660 38849 ft 435 kts 319°
2026-05-07 15:40 43.81784 -88.98136 39013 ft 435 kts 319°
2026-05-07 15:40 43.84229 -89.00606 39187 ft 435 kts 320°
2026-05-07 15:41 43.86680 -89.03084 39342 ft 436 kts 320°
2026-05-07 15:41 43.89101 -89.05534 39498 ft 436 kts 320°
2026-05-07 15:41 43.91549 -89.08015 39656 ft 436 kts 320°
2026-05-07 15:41 43.93998 -89.10498 39810 ft 436 kts 320°
2026-05-07 15:42 43.96453 -89.12991 39959 ft 436 kts 319°
2026-05-07 15:42 43.98907 -89.15486 40010 ft 439 kts 319°
2026-05-07 15:42 44.03834 -89.20503 40010 ft 441 kts 320°
2026-05-07 15:43 44.08803 -89.25568 40012 ft 440 kts 320°
2026-05-07 15:43 44.13710 -89.30581 39999 ft 439 kts 320°
2026-05-07 15:44 44.18651 -89.35641 40004 ft 439 kts 320°
2026-05-07 15:44 44.23556 -89.40677 40008 ft 439 kts 320°
2026-05-07 15:45 44.28467 -89.45730 40002 ft 440 kts 320°
2026-05-07 15:45 44.33413 -89.50828 39989 ft 440 kts 320°
2026-05-07 15:46 44.40785 -89.58448 39976 ft 440 kts 320°
2026-05-07 15:47 44.45695 -89.63537 39975 ft 440 kts 320°
2026-05-07 15:47 44.50638 -89.68671 39974 ft 440 kts 320°
2026-05-07 15:48 44.55529 -89.73763 39978 ft 440 kts 320°
2026-05-07 15:48 44.60455 -89.78901 39982 ft 440 kts 320°
2026-05-07 15:49 44.65373 -89.84043 39981 ft 441 kts 320°
2026-05-07 15:49 44.70299 -89.89204 39978 ft 441 kts 320°
2026-05-07 15:50 44.75190 -89.94339 39980 ft 441 kts 320°
2026-05-07 15:50 44.80107 -89.99513 39982 ft 441 kts 320°
2026-05-07 15:51 44.85014 -90.04687 39976 ft 440 kts 320°
2026-05-07 15:51 44.89917 -90.09868 39985 ft 439 kts 320°
2026-05-07 15:52 44.94792 -90.15031 39988 ft 439 kts 320°
2026-05-07 15:52 44.99688 -90.20226 40009 ft 439 kts 320°
2026-05-07 15:53 45.04563 -90.25411 39962 ft 440 kts 320°
2026-05-07 15:53 45.09432 -90.30600 39962 ft 440 kts 320°
2026-05-07 15:54 45.14325 -90.35828 39961 ft 440 kts 320°
2026-05-07 15:54 45.19224 -90.41073 39979 ft 439 kts 320°
2026-05-07 15:55 45.24074 -90.46279 39971 ft 440 kts 320°
2026-05-07 15:55 45.28960 -90.51536 39977 ft 440 kts 320°
2026-05-07 15:56 45.33832 -90.56789 39977 ft 440 kts 320°
2026-05-07 15:56 45.38710 -90.62061 39991 ft 440 kts 320°
2026-05-07 15:57 45.43559 -90.67313 39983 ft 440 kts 320°
2026-05-07 15:57 45.48418 -90.72586 39981 ft 440 kts 320°
2026-05-07 15:58 45.53299 -90.77893 39973 ft 440 kts 320°
2026-05-07 15:58 45.58172 -90.83205 39987 ft 440 kts 320°
2026-05-07 15:59 45.63023 -90.88504 39975 ft 440 kts 320°
2026-05-07 15:59 45.67893 -90.93837 39977 ft 440 kts 320°
2026-05-07 16:00 45.72729 -90.99143 39974 ft 440 kts 320°
2026-05-07 16:00 45.77562 -91.04458 39987 ft 440 kts 320°
2026-05-07 16:01 45.82445 -91.09841 39967 ft 441 kts 320°
2026-05-07 16:01 45.87278 -91.15181 39958 ft 441 kts 320°
2026-05-07 16:02 45.92147 -91.20572 39949 ft 441 kts 320°
2026-05-07 16:02 45.96989 -91.25945 39957 ft 440 kts 320°
2026-05-07 16:03 46.01812 -91.31310 39940 ft 440 kts 320°
2026-05-07 16:03 46.06670 -91.36726 39943 ft 441 kts 320°
2026-05-07 16:04 46.11521 -91.42146 39946 ft 441 kts 320°
2026-05-07 16:04 46.16352 -91.47558 39957 ft 441 kts 320°
2026-05-07 16:05 46.21196 -91.52995 39952 ft 441 kts 320°
2026-05-07 16:05 46.26024 -91.58428 39941 ft 442 kts 320°
2026-05-07 16:06 46.30883 -91.63907 39941 ft 441 kts 320°
2026-05-07 16:06 46.35693 -91.69343 39955 ft 441 kts 320°
2026-05-07 16:07 46.40533 -91.74826 39940 ft 441 kts 320°
2026-05-07 16:07 46.44556 -91.79392 39962 ft 442 kts 320°
2026-05-07 16:08 46.50190 -91.85802 39957 ft 442 kts 320°
2026-05-07 16:08 46.54217 -91.90393 39946 ft 442 kts 320°
2026-05-07 16:09 46.59844 -91.96825 39947 ft 442 kts 320°
2026-05-07 16:09 46.63867 -92.01435 39943 ft 442 kts 320°
2026-05-07 16:10 46.68699 -92.06983 39943 ft 441 kts 320°
2026-05-07 16:10 46.73491 -92.12500 39943 ft 441 kts 320°
2026-05-07 16:11 46.78304 -92.18055 39917 ft 441 kts 320°
2026-05-07 16:11 46.82985 -92.23783 39915 ft 440 kts 315°
2026-05-07 16:12 46.87377 -92.29976 39917 ft 440 kts 315°
2026-05-07 16:12 46.91817 -92.36164 39923 ft 440 kts 315°
2026-05-07 16:13 46.96270 -92.42329 39930 ft 440 kts 316°
2026-05-07 16:13 47.00697 -92.48454 39935 ft 440 kts 316°
2026-05-07 16:14 47.05143 -92.54618 39940 ft 439 kts 316°
2026-05-07 16:14 47.09586 -92.60790 39953 ft 439 kts 316°
2026-05-07 16:15 47.14007 -92.66945 39945 ft 439 kts 316°
2026-05-07 16:15 47.18439 -92.73131 39944 ft 439 kts 316°
2026-05-07 16:16 47.22848 -92.79300 39936 ft 439 kts 316°
2026-05-07 16:16 47.27274 -92.85507 39909 ft 439 kts 315°
2026-05-07 16:17 47.31708 -92.91740 39898 ft 439 kts 316°
2026-05-07 16:17 47.36102 -92.97932 39913 ft 438 kts 316°
2026-05-07 16:18 47.40516 -93.04168 39914 ft 438 kts 316°
2026-05-07 16:18 47.44883 -93.10352 39923 ft 438 kts 315°
2026-05-07 16:19 47.49287 -93.16604 39933 ft 438 kts 315°
2026-05-07 16:19 47.53686 -93.22864 39952 ft 438 kts 315°
2026-05-07 16:20 47.58063 -93.29109 39960 ft 438 kts 315°
2026-05-07 16:20 47.62460 -93.35396 39950 ft 439 kts 316°
2026-05-07 16:21 47.66821 -93.41648 39963 ft 438 kts 315°
2026-05-07 16:21 47.71197 -93.47938 39964 ft 437 kts 315°
2026-05-07 16:22 47.75567 -93.54233 39970 ft 437 kts 315°
2026-05-07 16:22 47.79918 -93.60517 39966 ft 437 kts 315°
2026-05-07 16:23 47.84294 -93.66852 39963 ft 438 kts 315°
2026-05-07 16:23 47.88642 -93.73160 39964 ft 438 kts 315°
2026-05-07 16:24 47.93013 -93.79520 39963 ft 438 kts 315°
2026-05-07 16:24 47.97352 -93.85848 39965 ft 438 kts 315°
2026-05-07 16:25 48.01716 -93.92228 39959 ft 438 kts 315°
2026-05-07 16:25 48.06075 -93.98619 39960 ft 438 kts 315°
2026-05-07 16:26 48.10402 -94.04978 39960 ft 438 kts 315°
2026-05-07 16:26 48.14757 -94.11395 39953 ft 438 kts 315°
2026-05-07 16:27 48.19105 -94.17818 39948 ft 439 kts 315°
2026-05-07 16:27 48.23464 -94.24273 39944 ft 440 kts 315°
2026-05-07 16:28 48.27788 -94.30693 39902 ft 440 kts 315°
2026-05-07 16:28 48.29955 -94.33916 39691 ft 436 kts 315°
2026-05-07 16:28 48.32106 -94.37119 39468 ft 432 kts 315°
2026-05-07 16:28 48.34239 -94.40300 39250 ft 431 kts 315°
2026-05-07 16:29 48.36367 -94.43476 39040 ft 431 kts 315°
2026-05-07 16:29 48.38469 -94.46619 38832 ft 431 kts 315°
2026-05-07 16:29 48.40602 -94.49811 38616 ft 431 kts 315°
2026-05-07 16:29 48.42724 -94.52991 38361 ft 431 kts 315°
2026-05-07 16:30 48.44859 -94.56195 38090 ft 431 kts 315°
2026-05-07 16:30 48.46984 -94.59386 37829 ft 430 kts 315°
2026-05-07 16:30 48.49075 -94.62532 37575 ft 430 kts 315°
2026-05-07 16:30 48.51199 -94.65731 37315 ft 430 kts 315°
2026-05-07 16:31 48.53320 -94.68928 37065 ft 429 kts 315°
2026-05-07 16:31 48.55436 -94.72123 36809 ft 429 kts 315°
2026-05-07 16:31 48.57546 -94.75312 36580 ft 429 kts 316°
2026-05-07 16:31 48.59632 -94.78469 36318 ft 429 kts 316°
2026-05-07 16:32 48.61741 -94.81663 36077 ft 428 kts 316°
2026-05-07 16:32 48.63840 -94.84850 35836 ft 427 kts 316°
2026-05-07 16:32 48.65943 -94.88045 35596 ft 426 kts 316°
2026-05-07 16:32 48.68033 -94.91225 35361 ft 426 kts 316°
2026-05-07 16:33 48.70100 -94.94372 35128 ft 426 kts 316°
2026-05-07 16:33 48.72193 -94.97565 34898 ft 425 kts 316°
2026-05-07 16:33 48.74276 -95.00745 34668 ft 425 kts 316°
2026-05-07 16:33 48.76358 -95.03927 34440 ft 424 kts 316°
2026-05-07 16:34 48.78435 -95.07107 33944 ft 424 kts 316°
2026-05-07 16:34 48.80517 -95.10298 33191 ft 425 kts 316°
2026-05-07 16:34 48.82569 -95.13445 32458 ft 426 kts 316°
2026-05-07 16:34 48.84652 -95.16646 31778 ft 426 kts 316°
2026-05-07 16:35 48.86722 -95.19832 31281 ft 421 kts 316°
2026-05-07 16:35 48.88758 -95.22969 30777 ft 416 kts 316°
2026-05-07 16:35 48.90791 -95.26105 30268 ft 412 kts 316°
2026-05-07 16:35 48.92790 -95.29190 29689 ft 406 kts 317°
2026-05-07 16:36 48.94758 -95.32233 29154 ft 400 kts 317°
2026-05-07 16:36 48.96700 -95.35241 28625 ft 394 kts 317°
2026-05-07 16:36 48.98590 -95.38171 28159 ft 388 kts 317°
2026-05-07 16:36 49.00454 -95.41064 27957 ft 378 kts 317°
2026-05-07 16:37 49.02277 -95.43894 27954 ft 379 kts 317°
2026-05-07 16:37 49.04121 -95.46759 27956 ft 379 kts 317°
2026-05-07 16:37 49.05968 -95.49632 27951 ft 379 kts 317°
2026-05-07 16:37 49.07820 -95.52518 27952 ft 379 kts 317°
2026-05-07 16:38 49.09681 -95.55391 27953 ft 379 kts 318°
2026-05-07 16:38 49.11574 -95.58195 27955 ft 378 kts 319°
2026-05-07 16:38 49.13444 -95.60951 27951 ft 378 kts 319°
2026-05-07 16:38 49.15335 -95.63747 27948 ft 378 kts 318°
2026-05-07 16:39 49.17224 -95.66553 27953 ft 379 kts 318°
2026-05-07 16:39 49.19119 -95.69373 27955 ft 380 kts 318°
2026-05-07 16:39 49.21017 -95.72204 27952 ft 380 kts 318°
2026-05-07 16:39 49.22909 -95.75033 27756 ft 376 kts 318°
2026-05-07 16:40 49.24781 -95.77835 26882 ft 379 kts 318°
2026-05-07 16:40 49.26654 -95.80641 26074 ft 382 kts 318°
2026-05-07 16:40 49.28559 -95.83498 25364 ft 383 kts 318°
2026-05-07 16:40 49.30467 -95.86364 24708 ft 383 kts 318°
2026-05-07 16:41 49.32366 -95.89220 24082 ft 382 kts 318°
2026-05-07 16:41 49.34262 -95.92075 23479 ft 380 kts 318°
2026-05-07 16:41 49.36123 -95.94882 22794 ft 377 kts 318°
2026-05-07 16:41 49.37993 -95.97704 22114 ft 375 kts 318°
2026-05-07 16:42 49.39852 -96.00512 21427 ft 373 kts 318°
2026-05-07 16:42 49.41697 -96.03302 20836 ft 369 kts 318°
2026-05-07 16:42 49.43492 -96.06021 20098 ft 360 kts 318°
2026-05-07 16:42 49.45252 -96.08693 18823 ft 352 kts 318°
2026-05-07 16:43 49.46988 -96.11326 17380 ft 349 kts 318°
2026-05-07 16:43 49.48709 -96.13938 15904 ft 345 kts 317°
2026-05-07 16:43 49.50407 -96.16518 14531 ft 340 kts 317°
2026-05-07 16:43 49.52063 -96.19037 13324 ft 336 kts 317°
2026-05-07 16:44 49.53723 -96.21566 12745 ft 331 kts 316°
2026-05-07 16:44 49.55337 -96.24028 12429 ft 321 kts 316°
2026-05-07 16:44 49.56918 -96.26441 11999 ft 316 kts 316°
2026-05-07 16:44 49.58454 -96.28788 11552 ft 313 kts 316°
2026-05-07 16:45 49.59995 -96.31145 11097 ft 310 kts 316°
2026-05-07 16:45 49.61510 -96.33465 10871 ft 300 kts 316°
2026-05-07 16:45 49.62961 -96.35689 10743 ft 288 kts 316°
2026-05-07 16:45 49.64358 -96.37833 10610 ft 278 kts 316°
2026-05-07 16:46 49.65691 -96.39880 10478 ft 269 kts 316°
2026-05-07 16:46 49.66999 -96.41889 10368 ft 261 kts 316°
2026-05-07 16:46 49.68277 -96.43854 10157 ft 258 kts 316°
2026-05-07 16:46 49.69551 -96.45809 9995 ft 259 kts 316°
2026-05-07 16:47 49.70632 -96.48039 9804 ft 261 kts 296°
2026-05-07 16:47 49.70947 -96.50776 9626 ft 267 kts 270°
2026-05-07 16:47 49.70381 -96.53523 9426 ft 273 kts 243°
2026-05-07 16:47 49.69019 -96.55638 9229 ft 286 kts 216°
2026-05-07 16:48 49.67121 -96.56661 9033 ft 295 kts 189°
2026-05-07 16:48 49.65093 -96.56341 8849 ft 300 kts 163°
2026-05-07 16:48 49.63273 -96.54784 8693 ft 300 kts 143°
2026-05-07 16:48 49.61652 -96.52729 8675 ft 302 kts 138°
2026-05-07 16:49 49.60094 -96.50550 8671 ft 302 kts 136°
2026-05-07 16:49 49.58850 -96.47969 8672 ft 299 kts 112°
2026-05-07 16:49 49.58416 -96.44930 8668 ft 292 kts 85°
2026-05-07 16:49 49.58857 -96.41952 8660 ft 282 kts 58°
2026-05-07 16:50 49.60063 -96.39668 8667 ft 271 kts 32°
2026-05-07 16:50 49.61746 -96.38534 8667 ft 261 kts
2026-05-07 16:50 49.63518 -96.38761 8673 ft 255 kts 338°
2026-05-07 16:50 49.65021 -96.40152 8667 ft 253 kts 321°
2026-05-07 16:51 49.66350 -96.41907 8673 ft 254 kts 318°
2026-05-07 16:51 49.67677 -96.43738 8672 ft 255 kts 318°
2026-05-07 16:51 49.68998 -96.45568 8673 ft 255 kts 318°
2026-05-07 16:51 49.70321 -96.47402 8675 ft 255 kts 318°
2026-05-07 16:52 49.71442 -96.49465 8671 ft 256 kts 298°
2026-05-07 16:52 49.71842 -96.52151 8673 ft 262 kts 271°
2026-05-07 16:52 49.71356 -96.54882 8658 ft 271 kts 245°
2026-05-07 16:52 49.70055 -96.57057 8659 ft 282 kts 218°
2026-05-07 16:53 49.68227 -96.58148 8669 ft 291 kts 191°
2026-05-07 16:53 49.66197 -96.57920 8671 ft 298 kts 165°
2026-05-07 16:53 49.64381 -96.56372 8675 ft 300 kts 139°
2026-05-07 16:53 49.62911 -96.54074 8674 ft 300 kts 131°
2026-05-07 16:54 49.61528 -96.51649 8670 ft 301 kts 130°
2026-05-07 16:54 49.60167 -96.49236 8670 ft 301 kts 130°
2026-05-07 16:54 49.58976 -96.46588 8668 ft 299 kts 111°
2026-05-07 16:54 49.58562 -96.43514 8662 ft 291 kts 84°
2026-05-07 16:55 49.59031 -96.40560 8663 ft 281 kts 57°
2026-05-07 16:55 49.60275 -96.38341 8839 ft 274 kts 30°
2026-05-07 16:55 49.61413 -96.37477 9019 ft 281 kts 12°
2026-05-07 16:55 49.63396 -96.37291 9537 ft 292 kts 348°
2026-05-07 16:56 49.65197 -96.38385 9926 ft 267 kts 326°
2026-05-07 16:56 49.67053 -96.40732 10010 ft 258 kts 319°
2026-05-07 16:56 49.69710 -96.44477 10012 ft 259 kts 318°
2026-05-07 16:57 49.71040 -96.46360 10012 ft 259 kts 318°
2026-05-07 16:57 49.72368 -96.48238 10014 ft 259 kts 318°
2026-05-07 16:57 49.73697 -96.50115 10009 ft 259 kts 318°
2026-05-07 16:57 49.75028 -96.51993 10016 ft 259 kts 318°
2026-05-07 16:58 49.75913 -96.53241 10010 ft 259 kts 318°
2026-05-07 16:58 49.77263 -96.55146 10012 ft 259 kts 318°
2026-05-07 16:58 49.78594 -96.57023 10020 ft 259 kts 318°
2026-05-07 16:58 49.79913 -96.58889 10014 ft 260 kts 318°
2026-05-07 16:59 49.81247 -96.60779 10011 ft 260 kts 318°
2026-05-07 16:59 49.82580 -96.62666 10011 ft 260 kts 318°
2026-05-07 16:59 49.83913 -96.64554 10011 ft 260 kts 318°
2026-05-07 16:59 49.85249 -96.66443 10014 ft 260 kts 318°
2026-05-07 17:00 49.86587 -96.68337 10011 ft 260 kts 318°
2026-05-07 17:00 49.87914 -96.70212 10017 ft 260 kts 318°
2026-05-07 17:00 49.89251 -96.72102 10016 ft 260 kts 318°
2026-05-07 17:00 49.90588 -96.73991 10013 ft 260 kts 318°
2026-05-07 17:01 49.91928 -96.75885 10013 ft 260 kts 318°
2026-05-07 17:01 49.93262 -96.77771 10012 ft 260 kts 318°
2026-05-07 17:01 49.94602 -96.79663 10012 ft 260 kts 318°
2026-05-07 17:01 49.95921 -96.81525 10011 ft 260 kts 318°
2026-05-07 17:02 49.97265 -96.83423 10012 ft 260 kts 318°
2026-05-07 17:02 49.98601 -96.85311 10006 ft 259 kts 318°
2026-05-07 17:02 49.99930 -96.87197 10014 ft 259 kts 318°
2026-05-07 17:02 50.01273 -96.89104 10012 ft 259 kts 319°
2026-05-07 17:03 50.02588 -96.90974 10012 ft 259 kts 319°
2026-05-07 17:03 50.03929 -96.92881 10014 ft 259 kts 319°
2026-05-07 17:03 50.05262 -96.94776 10014 ft 259 kts 319°
2026-05-07 17:03 50.06599 -96.96672 10012 ft 259 kts 319°
2026-05-07 17:04 50.07919 -96.98547 10011 ft 259 kts 319°
2026-05-07 17:04 50.09253 -97.00439 10011 ft 259 kts 319°
2026-05-07 17:04 50.10588 -97.02334 10013 ft 259 kts 319°
2026-05-07 17:04 50.11929 -97.04235 10014 ft 259 kts 319°
2026-05-07 17:05 50.13263 -97.06125 10012 ft 259 kts 319°
2026-05-07 17:05 50.14584 -97.07997 10014 ft 259 kts 319°
2026-05-07 17:05 50.15924 -97.09897 10014 ft 259 kts 319°
2026-05-07 17:05 50.17260 -97.11789 10014 ft 259 kts 319°
2026-05-07 17:06 50.18598 -97.13684 10017 ft 259 kts 319°
2026-05-07 17:06 50.19922 -97.15557 10014 ft 259 kts 319°
2026-05-07 17:06 50.21259 -97.17452 10016 ft 259 kts 319°
2026-05-07 17:06 50.22599 -97.19356 10015 ft 259 kts 319°
2026-05-07 17:07 50.23934 -97.21254 10015 ft 259 kts 319°
2026-05-07 17:07 50.25271 -97.23152 10014 ft 259 kts 319°
2026-05-07 17:07 50.26612 -97.25053 10014 ft 259 kts 319°
2026-05-07 17:07 50.27935 -97.26929 10014 ft 259 kts 319°
2026-05-07 17:08 50.29275 -97.28830 10010 ft 259 kts 319°
2026-05-07 17:08 50.30609 -97.30722 10007 ft 259 kts 319°
2026-05-07 17:08 50.31950 -97.32622 10007 ft 259 kts 319°
2026-05-07 17:08 50.33287 -97.34517 10007 ft 259 kts 319°
2026-05-07 17:09 50.34617 -97.36381 10006 ft 259 kts 321°
2026-05-07 17:09 50.36210 -97.37659 10010 ft 260 kts 346°
2026-05-07 17:09 50.38013 -97.37601 10010 ft 265 kts 12°
2026-05-07 17:09 50.39635 -97.36180 10006 ft 275 kts 38°
2026-05-07 17:10 50.40710 -97.33664 10006 ft 286 kts 64°
2026-05-07 17:10 50.40991 -97.30528 10004 ft 297 kts 91°
2026-05-07 17:10 50.40399 -97.27458 10006 ft 305 kts 117°
2026-05-07 17:10 50.39030 -97.24881 10006 ft 308 kts 137°
2026-05-07 17:11 50.37378 -97.22709 10011 ft 310 kts 140°
2026-05-07 17:11 50.35692 -97.20599 10015 ft 311 kts 141°
2026-05-07 17:11 50.33994 -97.18486 10012 ft 310 kts 141°
2026-05-07 17:11 50.32327 -97.16414 10013 ft 311 kts 141°
2026-05-07 17:12 50.30604 -97.14271 10012 ft 311 kts 141°
2026-05-07 17:12 50.28932 -97.12191 10013 ft 311 kts 141°
2026-05-07 17:12 50.27599 -97.10531 10016 ft 311 kts 141°
2026-05-07 17:13 50.25996 -97.08532 10018 ft 311 kts 141°